Vorticity
nan nan nan nan nan nan nan nan nan nan nan nan nan nan nan nan nan nan nan nan nan nan nan nan nan nan nan nan nan nan nan nan nan nan nan nan nan nan nan nan nan nan nan nan nan nan nan
nan 5 7 7 8 9 8 9 11 10 8 7 5 6 7 6 6 6 6 6 6 5 6 6 7 7 8 7 9 8 1 5 11 9 7 6 5 5 8 11 5 7 13 11 8 6 nan
nan 20 11 7 6 9 10 10 10 9 9 9 7 6 7 7 6 5 6 9 8 7 7 6 8 8 7 9 -3 10 13 3 4 5 12 10 6 3 6 8 13 12 11 11 15 11 nan
nan 14 21 17 7 8 9 10 11 10 8 9 9 7 6 7 8 7 7 9 11 11 10 9 8 9 7 14 6 1 8 11 7 7 7 7 10 10 7 5 8 13 15 14 10 13 nan
nan 7 13 21 17 7 8 9 12 9 8 9 9 8 7 7 9 9 9 9 14 13 9 9 8 8 8 9 12 12 11 6 6 10 9 9 9 7 8 11 5 7 8 8 11 12 nan
nan 6 9 12 19 15 7 9 12 10 9 9 8 8 8 8 9 10 9 8 12 11 8 7 5 7 12 9 12 10 8 8 4 6 13 13 8 6 7 8 5 4 5 6 7 8 nan
nan 11 8 7 21 22 8 10 10 10 11 10 9 9 7 8 8 9 3 3 7 11 11 6 0 0 7 11 8 11 9 7 7 5 9 7 6 8 4 3 6 3 3 6 8 8 nan
nan 10 11 9 11 16 20 14 10 10 12 12 11 12 9 7 10 5 0 5 8 10 13 11 4 4 1 6 8 9 12 9 10 4 1 8 16 8 8 7 7 4 6 5 4 10 nan
nan 9 9 11 12 8 23 26 12 11 10 11 13 12 10 8 7 5 7 8 8 7 12 18 15 12 13 6 7 9 7 7 7 11 9 2 11 8 5 5 8 8 7 8 1 5 nan
nan 9 9 12 12 15 12 18 25 16 10 13 14 11 8 3 5 8 12 12 5 5 10 13 13 15 14 9 21 17 5 -0 9 12 6 9 8 9 9 6 8 6 7 7 10 9 nan
nan 9 8 10 15 16 10 7 16 25 18 15 15 11 7 -3 3 8 13 14 5 3 8 15 9 9 15 9 8 17 14 7 8 5 4 6 15 18 8 9 2 11 13 10 15 9 nan
nan 8 9 10 14 20 14 6 3 22 26 19 12 10 1 -5 5 15 13 3 4 8 14 7 7 9 10 9 -2 10 14 7 11 14 7 4 -0 15 18 18 8 10 10 16 13 13 nan
nan 8 10 9 11 22 17 9 3 14 30 24 10 7 -3 4 12 11 2 3 8 6 12 11 8 10 9 11 8 3 11 9 3 12 13 14 7 6 14 15 15 8 7 11 11 11 nan
nan 9 10 11 13 13 14 7 3 18 39 23 10 2 -2 8 14 4 2 8 9 8 8 9 13 10 10 9 12 6 5 14 5 1 12 11 16 15 5 9 10 12 5 2 10 7 nan
nan 8 9 12 8 12 24 9 5 16 39 21 -2 -3 9 15 7 2 6 7 9 6 13 11 7 9 9 9 13 14 6 8 17 10 1 9 6 16 13 11 4 7 17 -1 2 12 nan
nan 10 8 8 8 19 20 8 10 24 36 8 -5 8 15 14 3 1 5 9 7 8 12 10 10 8 6 13 11 10 11 7 12 15 2 1 11 14 14 10 9 10 11 10 5 8 nan
nan 10 8 7 10 24 22 9 4 21 27 5 -3 11 16 8 2 6 9 10 9 12 7 5 7 5 10 15 9 6 5 12 14 16 10 2 10 5 10 14 11 5 -0 9 7 8 nan
nan 9 9 9 9 15 19 16 13 18 25 12 5 15 12 5 3 7 10 7 6 10 9 9 6 6 14 15 5 6 10 7 7 17 14 3 7 10 10 13 16 7 6 6 5 14 nan
nan 9 10 8 8 15 15 7 15 36 36 4 8 13 13 4 6 7 9 7 7 10 7 11 11 10 8 5 11 12 5 10 14 12 17 6 4 11 17 12 16 16 9 6 4 6 nan
nan 9 10 8 6 11 16 14 9 33 27 1 10 8 10 6 11 13 7 12 10 10 8 7 8 10 11 10 12 11 8 13 21 15 9 3 4 9 -2 5 10 22 14 2 1 -3 nan
nan 8 9 9 7 12 11 12 11 35 17 -1 10 10 13 12 7 10 9 11 12 11 12 9 14 10 6 10 13 9 11 13 16 8 -2 8 8 11 14 13 11 16 10 6 5 6 nan
nan 8 10 9 7 9 8 14 8 22 26 14 12 9 10 15 17 9 5 5 8 9 8 7 10 13 8 4 5 11 11 7 12 5 5 8 9 8 21 29 23 12 10 4 6 14 nan
nan 9 8 9 8 8 11 14 9 10 26 20 7 11 14 14 12 9 12 9 7 5 8 8 5 9 12 10 9 7 12 14 16 10 9 6 4 7 20 20 5 6 16 9 9 8 nan
nan 9 9 9 7 8 11 13 10 9 21 23 11 10 10 10 10 6 10 16 16 12 7 8 10 9 9 15 14 7 9 14 15 14 14 7 8 7 7 9 11 11 13 17 10 6 nan
nan 9 10 10 9 10 12 11 13 7 19 25 11 11 11 13 11 9 8 12 14 15 11 11 16 15 12 6 10 8 8 11 8 10 9 15 9 9 12 10 8 8 12 16 10 7 nan
nan 9 9 9 9 9 11 13 15 10 18 21 12 9 11 12 10 11 11 13 7 10 14 14 14 14 11 12 9 11 10 10 8 8 13 11 6 9 9 12 10 7 7 9 13 10 nan
nan 10 10 9 8 9 12 14 12 11 20 23 14 9 10 9 11 9 10 11 9 10 11 14 11 8 10 13 10 11 12 10 12 9 11 8 11 8 6 8 9 13 9 13 13 9 nan
nan 11 9 9 9 9 12 14 13 13 19 18 16 11 10 9 12 11 10 9 9 11 10 11 9 10 13 11 8 10 12 11 10 13 11 7 7 10 10 7 15 13 11 16 7 12 nan
nan nan nan nan nan nan nan nan nan nan nan nan nan nan nan nan nan nan nan nan nan nan nan nan nan nan nan nan nan nan nan nan nan nan nan nan nan nan nan nan nan nan nan nan nan nan nan
CAPE
19 22 21 10 44 62 74 75 70 83 31 4 1 1 4 6 4 0 0 0 0 4 0 14 24 56 28 14 0 4 0 0 0 0 0 15 6 0 0 0 0 0 0 0 0 0 0
59 58 33 36 40 64 65 67 66 80 58 35 11 3 1 3 4 0 0 1 0 3 12 0 16 48 22 5 0 0 0 0 0 12 5 1 4 0 3 0 0 7 0 0 0 0 0
21 94 54 47 46 67 59 77 76 68 42 32 37 20 8 0 2 0 1 14 16 5 0 0 0 6 6 0 0 0 17 6 0 0 0 33 30 26 20 2 0 10 10 1 3 6 2
26 27 95 59 70 54 62 78 94 90 56 29 49 50 25 15 2 7 2 14 15 28 11 23 24 27 2 0 0 0 0 0 0 0 0 0 3 0 22 12 0 16 41 20 0 2 0
16 15 43 85 107 94 89 78 90 108 93 46 54 54 45 29 33 36 38 21 24 24 22 30 25 21 0 0 0 0 0 0 0 0 0 0 0 1 2 12 8 9 10 29 12 0 30
26 16 27 60 108 116 125 124 104 90 99 87 67 57 47 39 38 47 45 2 6 40 15 21 13 15 0 0 0 0 0 0 0 0 0 7 0 0 0 29 8 19 26 8 4 0 44
36 41 40 51 54 181 117 128 137 102 88 82 80 68 56 31 45 55 2 0 0 0 21 0 0 0 0 0 0 0 0 0 0 0 0 0 10 13 0 0 1 0 0 16 5 0 31
56 44 29 56 42 58 166 163 140 148 92 86 89 69 52 46 66 70 3 9 0 0 3 0 0 0 0 6 4 0 0 1 8 2 0 0 3 0 0 0 0 2 1 0 0 0 42
60 72 73 65 54 45 46 201 160 175 125 101 105 69 60 58 64 32 0 1 0 0 1 12 0 0 0 3 4 4 0 0 2 6 1 0 0 0 0 0 5 1 2 0 0 0 9
78 64 84 73 67 53 33 46 182 146 94 84 81 88 54 63 10 0 4 0 2 0 7 0 0 5 13 24 9 6 10 0 20 1 0 0 0 0 2 0 0 0 0 0 0 27 66
72 70 89 82 99 65 81 55 55 210 123 97 86 88 39 0 0 1 0 0 2 12 0 0 1 0 12 2 3 1 19 8 11 2 12 0 0 0 0 0 0 0 0 0 40 57 44
81 101 100 108 145 116 89 17 35 53 172 104 91 60 45 13 0 0 0 0 1 1 0 1 2 1 8 13 16 8 1 21 8 16 14 0 0 5 0 0 0 4 11 45 64 45 28
77 101 105 146 118 149 102 37 60 0 191 134 39 35 9 0 0 0 0 0 8 3 0 2 5 7 4 13 19 24 28 47 32 12 7 4 0 0 8 0 1 47 25 65 48 36 8
94 95 139 165 76 184 136 11 20 8 202 100 10 34 1 0 0 0 0 15 13 0 0 0 0 4 12 1 19 22 9 30 16 6 12 1 0 9 0 0 0 2 14 36 1 0 0
99 91 137 140 96 100 163 54 16 3 179 92 10 19 0 0 0 0 0 3 0 0 1 1 5 16 27 18 6 34 4 8 1 0 0 79 0 64 82 150 132 4 52 0 1 13 16
100 86 101 121 107 107 35 15 5 13 133 26 7 16 7 0 0 0 15 1 0 0 0 6 18 8 1 3 21 3 10 0 0 0 0 0 2 3 63 91 168 109 24 49 8 3 17
95 104 85 91 86 89 69 32 25 55 178 25 2 10 11 2 8 8 9 3 0 0 3 13 15 5 0 0 0 1 0 0 0 0 0 1 0 0 12 13 54 14 19 34 15 7 5
119 128 76 93 63 98 69 51 80 13 6 2 2 21 7 11 24 17 12 1 7 1 9 6 17 9 0 0 0 0 0 0 0 0 0 10 24 16 0 60 0 29 26 16 4 13 35
99 103 67 100 74 81 53 81 54 18 37 0 5 23 10 3 6 7 10 10 12 11 23 30 11 16 10 0 2 0 0 0 0 0 1 0 28 17 7 24 5 8 10 30 12 1 0
110 80 46 129 111 86 77 61 30 19 31 9 4 31 37 22 6 6 6 8 16 5 7 15 13 5 29 2 0 0 0 1 0 0 33 4 17 6 2 12 1 13 1 25 6 2 0
105 85 47 38 69 96 77 60 48 22 22 0 3 9 4 6 4 16 19 19 15 7 2 4 10 1 7 0 0 0 0 3 0 79 7 0 3 0 0 0 1 0 0 8 3 0 0
102 76 56 40 86 83 73 49 47 21 6 0 0 3 7 0 0 5 6 20 21 10 11 20 1 5 7 0 0 0 0 0 0 19 0 0 4 4 0 0 9 2 0 1 0 0 0
95 58 52 37 40 64 66 63 43 35 17 2 0 0 7 5 0 3 4 0 0 2 2 1 3 3 23 1 16 6 0 0 1 0 0 0 5 12 0 1 1 2 0 0 0 0 0
97 49 51 34 65 69 93 69 35 18 27 12 0 0 0 5 0 9 13 3 5 18 6 1 9 2 1 3 0 5 3 0 0 0 0 0 0 3 0 0 0 0 0 0 0 0 0
87 64 47 35 54 73 61 63 44 29 10 0 0 2 1 9 3 5 2 0 4 1 12 8 12 0 7 6 3 11 8 24 2 0 0 0 0 9 0 0 0 0 0 0 0 0 0
92 63 39 38 59 78 56 61 37 30 15 7 0 0 0 0 1 0 1 3 0 0 4 7 0 0 1 2 23 6 15 4 2 15 0 0 0 25 0 0 0 0 0 0 0 0 0
86 75 41 40 50 50 53 50 46 19 16 2 0 0 0 0 0 1 2 3 1 19 8 0 0 0 0 4 7 0 1 0 1 1 1 7 3 2 0 0 0 0 0 0 0 0 0
85 77 45 37 31 61 53 43 42 39 21 2 0 0 0 0 0 0 0 0 0 5 17 0 0 1 0 0 14 0 0 0 0 0 0 1 0 2 9 5 0 0 0 0 0 0 0
80 52 51 39 31 42 55 53 37 37 24 11 0 0 0 0 0 0 0 0 0 0 7 0 0 0 0 1 0 0 0 0 0 0 0 0 0 0 0 0 0 0 0 0 0 0 0